Location: LDNL
(36.4545°S, 141.6685°E)
Time: 04:28:27
(UTC+11:00)

A-11 Canister half - Pass Details

Date: 19 August 2022
Orbit: 1524 x 1684 km, 47.3° (Epoch: 05 October)

Event Time Altitude Azimuth Distance (km) Brightness Sun altitude
Rises 14:34:37 0° 326° (NW) 4,764 12.7 33.5°
Reaches altitude 10° 14:37:49 10° 330° (NNW) 3,763 12.5 33.1°
Maximum altitude 14:46:56 54° 44° (NE) 1,830 9.9 32.0°
Drops below altitude 10° 14:55:55 10° 117° (ESE) 3,711 10.6 30.9°
Sets 14:59:02 0° 121° (ESE) 4,694 11.0 30.5°
